TimeEDT,TemperatureF,Dew PointF,Humidity,Sea Level PressureIn,VisibilityMPH,Wind Direction,Wind SpeedMPH,Gust SpeedMPH,PrecipitationIn,Events,Conditions,WindDirDegrees,DateUTC
12:35 AM,39.2,37.4,93,30.30,10.0,Calm,Calm,-,N/A,,Scattered Clouds,0,2012-10-09 04:35:00
12:48 AM,39.2,37.4,93,30.29,10.0,Calm,Calm,-,N/A,,Mostly Cloudy,0,2012-10-09 04:48:00
12:53 AM,39.0,37.0,93,30.30,10.0,Calm,Calm,-,N/A,,Mostly Cloudy,0,2012-10-09 04:53:00
1:53 AM,39.0,36.0,89,30.32,10.0,Calm,Calm,-,N/A,,Overcast,0,2012-10-09 05:53:00
2:53 AM,39.9,37.0,89,30.30,2.5,Calm,Calm,-,N/A,,Overcast,0,2012-10-09 06:53:00
3:07 AM,39.2,37.4,93,30.29,7.0,Calm,Calm,-,N/A,,Overcast,0,2012-10-09 07:07:00
3:48 AM,39.2,37.4,93,30.29,1.8,NE,3.5,-,N/A,,Overcast,40,2012-10-09 07:48:00
4:34 AM,39.2,37.4,93,30.31,0.8,NE,3.5,-,N/A,,Overcast,50,2012-10-09 08:34:00
4:41 AM,39.2,37.4,93,30.31,0.5,NE,3.5,-,N/A,Fog,Fog,50,2012-10-09 08:41:00
4:53 AM,39.0,37.0,93,30.32,0.5,ENE,4.6,-,N/A,Fog,Fog,60,2012-10-09 08:53:00
5:53 AM,39.0,37.0,93,30.32,0.5,ENE,3.5,-,N/A,Fog,Fog,70,2012-10-09 09:53:00
6:53 AM,39.0,37.9,96,30.32,0.5,Calm,Calm,-,N/A,Fog,Fog,0,2012-10-09 10:53:00
7:21 AM,39.2,37.4,93,30.31,0.2,Calm,Calm,-,N/A,Fog,Fog,0,2012-10-09 11:21:00
7:53 AM,39.0,37.0,93,30.32,0.2,North,3.5,-,N/A,Fog,Fog,360,2012-10-09 11:53:00
8:41 AM,39.2,37.4,93,30.30,0.5,North,3.5,-,N/A,Fog,Fog,350,2012-10-09 12:41:00
8:53 AM,39.9,37.9,93,30.32,0.5,Calm,Calm,-,N/A,Fog,Fog,0,2012-10-09 12:53:00
9:01 AM,39.2,37.4,93,30.31,0.8,Calm,Calm,-,N/A,,Overcast,0,2012-10-09 13:01:00
9:13 AM,39.2,39.2,100,30.31,1.5,Calm,Calm,-,N/A,,Overcast,0,2012-10-09 13:13:00
9:22 AM,39.2,37.4,93,30.31,3.0,Calm,Calm,-,N/A,,Overcast,0,2012-10-09 13:22:00
9:53 AM,41.0,37.9,89,30.32,8.0,Calm,Calm,-,N/A,,Overcast,0,2012-10-09 13:53:00
10:13 AM,42.8,39.2,87,30.30,10.0,Calm,Calm,-,N/A,,Scattered Clouds,0,2012-10-09 14:13:00
10:53 AM,46.9,39.9,77,30.31,10.0,Calm,Calm,-,N/A,,Scattered Clouds,0,2012-10-09 14:53:00
11:00 AM,46.4,39.2,76,30.30,10.0,Calm,Calm,-,N/A,,Mostly Cloudy,0,2012-10-09 15:00:00
11:37 AM,50.0,41.0,71,30.28,10.0,Calm,Calm,-,N/A,,Overcast,0,2012-10-09 15:37:00
11:49 AM,50.0,41.0,71,30.28,10.0,Calm,Calm,-,N/A,,Overcast,0,2012-10-09 15:49:00
11:53 AM,50.0,41.0,71,30.29,10.0,Calm,Calm,-,N/A,,Overcast,0,2012-10-09 15:53:00
12:21 PM,53.6,42.8,67,30.26,10.0,Calm,Calm,-,N/A,,Overcast,0,2012-10-09 16:21:00
12:53 PM,53.1,42.1,66,30.25,10.0,Calm,Calm,-,N/A,,Overcast,0,2012-10-09 16:53:00
1:15 PM,53.6,42.8,67,30.24,10.0,Calm,Calm,-,N/A,,Overcast,0,2012-10-09 17:15:00
1:24 PM,53.6,42.8,67,30.23,10.0,Calm,Calm,-,N/A,,Overcast,0,2012-10-09 17:24:00
1:53 PM,54.0,43.0,66,30.22,10.0,Calm,Calm,-,N/A,,Overcast,0,2012-10-09 17:53:00
2:45 PM,55.4,42.8,63,30.20,10.0,SE,4.6,-,N/A,,Overcast,140,2012-10-09 18:45:00
2:53 PM,55.0,43.0,64,30.21,10.0,Calm,Calm,-,N/A,,Overcast,0,2012-10-09 18:53:00
3:53 PM,55.0,43.0,64,30.19,10.0,Calm,Calm,-,N/A,,Overcast,0,2012-10-09 19:53:00
4:53 PM,55.0,42.1,62,30.18,10.0,Calm,Calm,-,N/A,,Overcast,0,2012-10-09 20:53:00
5:53 PM,52.0,46.0,80,30.19,10.0,Calm,Calm,-,N/A,,Overcast,0,2012-10-09 21:53:00
6:53 PM,53.1,43.0,69,30.18,10.0,Calm,Calm,-,N/A,,Overcast,0,2012-10-09 22:53:00
7:53 PM,51.1,46.0,83,30.18,10.0,Calm,Calm,-,N/A,,Overcast,0,2012-10-09 23:53:00
8:28 PM,51.8,44.6,76,30.16,10.0,Calm,Calm,-,N/A,,Overcast,0,2012-10-10 00:28:00
8:53 PM,53.1,44.1,71,30.17,10.0,Calm,Calm,-,N/A,,Overcast,0,2012-10-10 00:53:00
9:53 PM,51.1,44.1,77,30.17,10.0,Calm,Calm,-,N/A,,Overcast,0,2012-10-10 01:53:00
10:34 PM,51.8,44.6,76,30.15,10.0,SSE,3.5,-,N/A,,Overcast,160,2012-10-10 02:34:00
10:53 PM,51.1,44.1,77,30.15,10.0,Calm,Calm,-,N/A,,Overcast,0,2012-10-10 02:53:00
11:30 PM,50.0,42.8,76,30.14,10.0,Calm,Calm,-,N/A,,Overcast,0,2012-10-10 03:30:00
11:53 PM,50.0,43.0,77,30.14,10.0,Variable,3.5,-,N/A,,Overcast,0,2012-10-10 03:53:00